Wetbulb
37.29 38.05 38.99 39.95 40.36 40.76 41.30 41.96 42.65 42.94 43.14 43.20 43.19 43.64 44.32 44.72 44.45 44.86 45.53 45.89 46.02 46.33 46.73 47.18 47.54 47.54 47.45 47.27 47.00 46.73 46.55 46.55 46.32 46.55 46.68 46.28 45.28 44.47 43.92 43.79 43.75 43.70 43.66 43.52 43.75 44.02 44.43 44.79 45.55 46.10 46.46 46.73 46.86 47.00 47.14 47.41 47.90 48.36 48.76 48.81 48.94 49.17 49.44 49.62 49.71 49.90 50.12 50.58 51.35
36.17 36.84 37.85 39.00 39.28 39.59 39.95 40.60 41.01 41.46 41.87 42.38 42.45 42.66 43.05 43.68 43.78 43.91 44.18 44.76 45.26 45.75 46.24 46.60 46.55 46.42 46.28 46.24 46.32 46.01 45.87 46.10 46.23 46.23 46.10 45.82 45.28 44.42 43.70 43.47 43.38 43.38 43.39 43.07 43.25 43.47 43.79 44.06 44.79 45.24 45.55 45.60 45.82 46.10 46.32 46.59 47.14 47.45 47.54 47.63 48.04 48.45 48.81 48.85 48.86 48.99 49.17 49.22 49.49
35.30 35.87 36.44 36.70 36.91 37.36 38.04 38.67 39.00 39.45 40.03 41.01 41.32 41.75 42.22 42.75 42.97 42.97 43.10 43.41 43.73 44.36 45.08 45.57 45.17 45.13 45.35 45.57 45.70 45.47 45.28 45.24 45.92 46.01 45.83 45.69 45.24 44.56 43.79 43.29 43.02 42.98 43.02 42.75 42.75 42.93 43.20 43.43 44.11 44.65 44.74 44.60 44.78 44.96 45.24 45.60 46.28 46.55 46.59 46.73 47.27 47.63 47.95 47.99 48.09 48.31 48.54 48.67 48.76
34.64 34.91 35.29 35.49 35.47 35.79 36.42 37.27 37.53 38.16 38.90 39.95 39.90 40.27 40.84 41.64 41.90 42.01 42.03 42.14 42.15 42.60 43.24 43.87 43.78 43.79 44.15 44.95 45.12 45.12 45.02 45.15 45.64 45.64 45.42 45.15 45.15 44.74 43.97 43.15 42.84 42.57 42.38 42.20 42.34 42.48 42.61 42.79 43.38 43.65 43.70 43.52 43.74 43.97 44.33 44.78 45.42 45.69 45.82 46.09 46.55 46.86 47.04 47.18 47.32 47.63 47.81 47.90 47.90
34.16 34.37 34.64 34.97 34.84 35.17 35.67 36.13 36.43 37.03 37.88 38.67 38.68 38.92 39.34 40.09 40.29 40.41 40.62 41.19 41.57 41.71 41.84 42.06 42.34 42.62 42.98 43.38 44.23 44.54 44.58 44.25 45.10 45.10 44.78 44.69 44.60 44.65 44.56 44.28 43.29 42.56 42.11 42.02 42.07 42.07 42.11 42.20 42.66 42.93 42.93 42.93 43.06 43.24 43.47 43.97 44.51 44.83 45.19 45.51 45.82 46.09 46.37 46.68 46.73 46.95 47.09 47.32 47.18
33.63 33.81 33.99 34.37 34.45 34.81 35.29 35.52 35.61 36.12 36.81 37.35 37.11 37.17 37.64 38.58 38.78 38.95 39.16 39.68 40.17 40.33 40.68 41.59 41.69 41.86 41.89 41.63 42.75 43.65 44.14 43.73 43.67 43.79 44.06 44.56 44.51 44.33 44.24 44.28 43.74 42.83 41.88 41.65 41.75 41.75 41.70 41.70 42.07 42.38 42.57 42.65 42.34 42.43 42.79 43.29 43.83 44.19 44.42 44.65 44.83 45.19 45.51 45.87 46.05 46.27 46.50 46.73 46.59
33.09 33.23 33.39 33.51 33.94 34.38 34.74 34.83 35.19 35.52 35.86 36.13 35.78 35.76 36.18 37.11 37.29 37.39 37.75 38.48 39.04 39.47 40.07 41.14 40.54 40.34 40.36 40.36 40.94 41.85 42.88 43.69 43.55 43.46 43.63 44.20 44.33 44.33 44.15 43.92 43.65 43.02 42.29 41.74 41.38 41.34 41.38 41.25 41.48 42.02 42.66 43.16 42.29 41.84 41.84 42.34 42.84 43.24 43.47 43.65 43.92 44.19 44.51 44.87 45.23 45.60 45.96 46.14 46.00
32.91 33.02 33.19 33.17 33.59 33.89 34.03 34.02 34.40 34.72 35.06 35.24 34.99 34.97 35.30 36.13 36.27 36.50 36.91 37.40 37.80 38.33 38.85 39.31 38.78 38.69 38.89 39.24 39.50 40.14 40.95 41.63 41.98 42.38 42.74 43.22 43.57 43.83 43.92 43.70 43.34 43.02 42.61 42.02 41.52 41.15 40.93 40.93 41.29 41.56 41.75 42.16 41.93 41.62 41.39 41.61 41.93 42.20 42.48 42.66 43.02 43.29 43.60 44.01 44.51 44.96 45.28 45.51 45.51
32.99 32.99 33.01 33.06 33.33 33.54 33.71 33.66 33.63 33.75 33.93 34.05 34.07 34.27 34.89 35.96 35.86 35.98 36.27 36.64 37.16 37.48 37.57 37.68 37.61 37.73 37.87 38.15 38.44 38.93 39.46 40.14 40.45 40.85 41.34 41.75 42.50 43.12 43.48 43.61 43.57 43.12 42.53 42.02 41.88 41.47 41.06 40.79 40.70 40.97 41.38 41.79 41.70 41.61 41.43 41.43 41.62 41.71 41.71 41.93 42.20 42.57 42.93 43.20 43.74 44.15 44.46 44.73 44.73
32.24 32.39 32.53 32.87 32.85 33.25 33.53 33.28 33.36 33.28 33.30 33.40 33.54 33.95 34.84 36.41 35.85 35.73 35.86 36.49 36.66 36.57 36.46 36.55 36.67 36.83 36.97 37.24 37.70 38.11 38.62 39.05 39.36 39.63 39.95 40.67 41.21 41.57 42.01 42.72 43.03 43.07 42.67 41.62 41.66 41.66 41.43 40.93 40.52 40.25 40.34 41.06 41.20 41.25 41.21 41.30 41.48 41.48 41.48 41.66 41.89 42.02 42.16 42.57 42.93 43.38 43.92 44.28 44.10
31.25 31.54 31.89 32.34 32.31 32.87 33.24 32.94 33.39 33.55 33.56 33.51 33.40 33.61 34.19 35.05 34.91 35.29 35.78 35.99 35.62 35.34 35.37 35.77 35.85 36.00 36.17 36.48 36.92 37.39 37.87 38.32 38.57 38.78 39.09 39.41 39.99 40.21 40.39 40.97 41.74 42.27 42.27 41.40 40.94 41.16 41.39 41.21 40.80 40.30 39.93 40.02 40.47 40.66 40.84 40.98 41.16 41.25 41.25 41.39 41.48 41.48 41.57 41.75 42.11 42.52 43.06 43.47 43.51
30.55 30.86 31.20 31.56 31.69 32.06 32.37 32.61 33.20 33.42 33.40 33.29 33.31 33.44 33.67 33.77 34.15 34.85 35.31 34.84 34.59 34.56 34.80 35.13 35.21 35.31 35.53 36.04 36.24 36.77 37.16 37.26 37.39 37.81 38.12 38.34 38.60 38.82 39.18 39.67 40.31 40.98 41.38 41.41 40.53 40.48 40.80 40.80 40.57 40.35 40.08 39.80 39.89 40.02 40.25 40.39 40.57 40.75 40.85 40.98 40.98 41.12 41.25 41.30 41.43 41.70 42.11 42.42 42.74
29.54 29.95 30.45 30.83 30.93 31.21 31.64 32.13 32.78 33.03 33.04 32.99 33.08 33.32 33.51 33.63 34.15 34.59 34.65 33.88 34.02 34.24 34.48 34.63 34.80 34.85 34.99 35.27 35.57 35.88 36.14 36.43 36.67 37.04 37.33 37.50 37.80 37.89 38.10 38.64 39.27 39.86 40.62 41.47 40.91 40.71 40.67 40.48 40.12 39.89 39.85 39.85 39.67 39.89 40.12 39.98 40.02 40.16 40.30 40.39 40.48 40.76 40.99 41.12 41.12 41.21 41.43 41.70 42.20
28.51 28.99 29.51 29.85 30.02 30.62 31.16 31.47 32.25 32.66 32.73 32.52 32.84 33.13 33.27 33.27 34.01 34.37 34.20 33.47 33.43 33.58 33.81 33.99 34.42 34.71 34.78 34.66 34.91 35.15 35.36 35.75 35.95 36.09 36.34 36.91 37.07 37.10 37.35 38.06 38.42 39.09 40.18 41.63 41.93 41.59 41.04 40.99 40.26 40.07 40.08 39.85 39.58 39.76 39.90 39.90 39.98 40.02 39.98 39.89 39.98 40.21 40.53 40.76 40.80 40.94 41.03 41.30 41.75
27.79 28.26 28.69 29.00 29.34 29.96 30.55 30.64 31.67 32.15 32.17 32.12 32.54 32.78 32.96 33.11 33.71 34.06 33.97 33.18 32.97 33.15 33.32 33.35 33.72 33.98 34.22 34.20 34.29 34.43 34.66 35.00 35.19 35.38 35.76 36.16 36.31 36.46 36.80 37.36 37.62 38.30 39.39 40.95 42.01 42.21 41.97 41.37 41.00 40.71 40.53 40.48 39.76 39.40 39.36 39.67 39.85 40.03 40.08 40.03 39.85 39.94 40.08 40.27 40.31 40.58 40.94 41.25 41.48
27.02 27.48 27.85 28.21 28.65 29.30 29.76 30.12 31.07 31.46 31.65 31.76 32.10 32.23 32.44 32.68 33.01 33.36 33.45 33.01 33.00 32.98 33.02 32.68 32.83 33.01 33.39 33.96 34.01 33.97 34.02 34.42 34.62 34.87 35.11 35.50 35.73 36.01 36.30 36.68 37.06 37.35 37.89 38.85 39.94 40.97 41.59 41.62 41.69 41.22 40.76 40.90 40.35 39.67 39.17 39.22 39.40 39.67 39.94 40.04 40.04 39.99 40.04 40.22 40.35 40.58 40.85 41.21 41.43
26.03 26.40 26.82 27.11 27.76 28.37 28.94 29.51 30.29 30.70 30.96 31.05 31.16 31.51 31.75 32.05 32.19 32.78 33.19 33.11 32.76 32.49 32.31 32.08 32.29 32.41 32.65 33.18 33.45 33.62 33.81 34.04 34.25 34.43 34.70 34.92 35.17 35.41 35.70 35.99 36.32 36.61 36.85 37.24 37.86 38.51 39.38 40.42 41.26 41.20 40.92 41.00 40.63 39.99 39.44 39.13 39.22 39.36 39.58 39.77 39.81 39.81 39.99 40.45 40.58 40.67 40.80 41.12 41.39
25.15 25.56 25.88 26.31 26.97 27.57 28.13 28.79 29.30 29.67 29.85 30.06 30.46 30.72 30.98 31.21 31.23 31.61 32.04 32.28 31.96 31.66 31.45 31.42 31.72 31.80 31.78 31.81 32.25 33.06 33.56 33.43 33.63 33.90 34.13 34.45 34.66 34.89 35.15 35.36 35.91 36.19 36.34 36.57 36.83 37.04 37.27 37.68 39.36 40.54 41.02 41.05 40.41 40.22 40.22 39.99 39.81 39.59 39.41 39.36 39.50 39.50 39.64 39.91 40.00 40.27 40.62 40.85 41.31
24.62 24.92 25.30 25.86 26.40 26.95 27.57 28.48 28.69 28.84 29.04 29.30 29.68 29.98 30.13 30.16 30.14 30.32 30.61 30.81 31.34 31.11 30.74 30.75 30.97 31.17 31.24 31.23 31.47 32.32 33.08 32.87 32.79 33.08 33.52 33.83 34.15 34.39 34.59 34.95 35.37 35.69 35.83 35.93 36.17 36.38 36.55 36.50 37.23 38.40 39.67 40.84 40.87 41.04 41.09 40.86 40.59 40.36 40.13 39.77 39.55 39.32 39.28 39.33 39.51 39.78 40.13 40.31 40.68
24.36 24.75 25.23 25.74 26.03 26.20 26.60 27.34 27.51 27.60 27.87 28.49 28.53 28.76 29.01 29.24 29.28 29.34 29.45 29.83 30.48 30.41 29.98 29.89 30.14 30.38 30.60 30.74 30.91 31.33 32.00 32.68 32.43 32.55 32.74 33.18 33.41 33.60 33.96 34.35 34.70 35.05 35.28 35.47 35.80 35.87 35.84 35.83 36.04 36.58 37.61 39.07 40.38 40.96 41.32 41.59 41.45 41.13 41.00 40.95 40.54 39.91 39.33 39.24 39.14 39.28 39.60 39.78 40.05
24.48 24.84 25.26 25.59 25.58 25.71 25.90 26.33 26.32 26.24 26.34 26.79 27.12 27.45 27.95 28.33 28.41 28.55 28.71 29.29 29.48 29.44 29.21 29.12 29.27 29.47 29.73 30.08 30.30 30.63 31.25 32.54 32.15 32.02 32.16 32.52 32.71 32.99 33.32 33.76 34.02 34.41 34.86 35.24 35.60 35.57 35.49 35.56 35.59 35.71 36.03 36.84 38.06 39.24 40.33 41.18 41.04 41.09 41.36 41.67 41.49 41.04 40.54 40.18 39.51 39.05 38.87 39.05 39.42
24.66 24.95 25.07 25.26 25.21 25.57 25.88 25.92 25.33 24.98 24.92 25.32 25.85 26.21 26.48 27.03 27.44 27.76 28.08 28.34 28.49 28.44 28.38 28.53 28.77 28.88 29.07 29.40 29.72 30.10 30.77 31.81 31.61 31.55 31.71 31.84 32.05 32.48 32.85 33.23 33.17 33.49 34.00 34.51 34.96 35.31 35.56 35.80 35.69 35.53 35.34 35.51 35.83 36.97 38.24 39.38 39.97 40.51 41.01 41.64 41.82 41.77 41.46 41.32 40.77 40.14 39.46 38.87 38.74
24.50 24.58 24.72 25.10 25.03 25.63 26.17 25.49 24.43 23.93 23.93 24.30 24.77 25.11 25.49 25.98 26.42 26.68 26.82 26.72 27.52 27.52 27.43 27.87 28.46 28.61 28.71 29.02 29.30 29.56 29.98 30.49 30.69 30.95 31.18 31.21 31.42 31.74 32.08 32.41 32.34 32.52 33.12 34.08 34.67 35.22 35.71 36.35 36.25 35.96 35.58 35.47 35.55 36.24 37.52 39.48 40.52 40.97 41.24 41.60 41.92 42.05 41.96 41.96 41.73 41.32 40.69 39.92 39.37
24.42 24.44 24.81 25.54 24.78 24.44 24.15 23.86 23.47 23.46 23.60 23.95 24.22 24.34 24.57 24.93 25.22 25.34 25.43 25.66 26.20 26.40 26.75 27.77 28.27 28.37 28.43 28.90 29.10 29.19 29.28 29.35 29.69 29.94 30.28 30.60 30.95 31.17 31.42 31.83 31.92 32.21 32.83 33.93 35.68 36.91 37.73 38.32 37.83 37.32 36.82 36.57 36.80 37.29 38.11 39.38 40.61 41.20 41.42 41.74 41.87 42.05 42.10 42.14 42.01 41.82 41.59 41.10 40.69
24.63 24.93 25.30 25.57 24.84 24.29 23.83 23.55 23.38 23.45 23.63 23.88 23.83 23.83 23.78 24.04 24.41 24.57 24.61 24.80 25.23 25.66 26.08 26.50 26.92 27.69 28.50 29.06 29.09 29.03 28.83 28.51 28.86 29.15 29.49 29.96 30.36 30.65 30.95 31.52 31.81 32.36 33.29 34.78 37.54 39.36 40.36 40.84 40.69 39.81 38.77 37.68 37.39 37.43 37.52 37.52 37.97 38.79 39.97 41.10 41.73 41.92 41.92 41.87 41.88 41.83 41.83 41.69 41.51
24.58 24.84 25.07 25.22 25.07 24.54 24.04 23.69 23.54 23.53 23.69 23.76 23.64 23.55 23.60 23.86 24.18 24.06 23.95 23.98 24.51 24.90 25.30 25.71 26.10 27.88 29.34 29.10 28.76 28.51 28.55 28.77 28.81 28.78 28.90 29.31 29.60 29.95 30.38 31.02 31.65 32.26 33.49 35.77 37.99 39.43 40.42 41.37 41.95 41.71 40.69 38.80 37.79 37.63 37.75 37.20 37.02 37.20 37.84 38.96 40.28 40.96 41.32 41.64 41.23 41.15 41.43 41.83 41.74
24.31 24.48 24.73 25.21 24.94 24.69 24.41 24.16 23.93 23.84 23.77 23.84 23.55 23.46 23.56 23.69 23.55 23.46 23.31 23.29 23.69 24.06 24.51 24.92 25.36 27.73 29.45 27.92 27.27 27.21 27.69 28.55 28.60 28.52 28.51 28.72 29.03 29.29 29.66 30.45 31.10 31.98 33.59 36.30 38.04 39.30 40.17 41.00 41.78 41.99 41.59 40.16 38.67 37.92 37.72 37.89 37.16 36.61 36.79 37.92 38.69 39.64 40.59 41.22 40.96 40.65 40.43 40.84 41.34
23.79 24.14 24.37 24.44 24.50 24.57 24.63 24.38 24.22 24.16 24.17 24.12 23.93 23.95 24.06 23.93 23.59 23.40 23.37 23.37 23.42 23.66 23.92 24.34 25.77 26.92 27.26 26.45 26.21 26.45 26.99 27.52 28.03 28.39 28.68 28.72 28.81 28.96 29.27 30.08 30.59 31.96 34.11 36.85 38.11 38.98 39.80 40.54 41.08 41.58 41.78 41.34 39.70 38.51 37.84 37.50 37.26 36.93 37.10 38.38 39.28 40.01 40.42 40.33 40.01 39.97 39.93 39.52 40.11
23.14 23.48 23.75 23.86 24.19 24.49 24.66 24.47 24.38 24.44 24.44 24.36 24.52 24.68 24.79 24.60 24.53 24.32 24.00 23.51 23.32 23.38 23.94 25.22 26.40 26.34 25.93 25.59 26.18 26.41 26.49 26.48 27.48 28.01 28.24 28.20 28.36 28.69 29.22 29.80 30.26 31.92 34.44 37.13 37.98 38.65 39.35 40.00 40.46 41.01 41.42 41.70 40.63 39.46 38.51 38.00 38.08 38.03 38.34 39.78 40.10 39.92 39.38 38.88 38.92 38.93 38.93 38.98 39.30
22.87 22.97 23.18 23.34 23.73 24.08 24.42 24.47 24.55 24.61 24.76 25.18 25.11 24.98 25.01 25.15 25.01 24.84 24.31 23.51 23.23 23.95 25.02 25.86 25.44 25.00 24.87 25.10 25.40 25.84 26.28 26.58 27.28 27.40 27.35 27.29 27.82 28.50 29.29 30.15 30.11 31.47 33.90 36.80 37.69 38.36 38.90 39.51 39.89 40.26 40.72 41.17 40.30 39.27 38.35 37.92 37.44 37.65 38.40 39.57 39.30 38.85 38.58 38.44 37.72 37.67 38.08 38.62 38.89
22.37 22.39 22.52 22.81 23.25 23.74 24.05 24.31 24.48 24.67 24.95 25.19 24.84 24.79 24.92 25.06 24.92 24.74 24.38 23.78 24.23 25.62 26.55 25.69 24.44 23.83 23.80 24.19 24.44 24.83 25.43 26.11 26.43 26.62 26.83 26.88 28.27 28.87 29.08 29.23 29.23 30.90 33.50 36.50 37.36 38.08 38.57 39.02 39.36 39.77 40.14 40.47 39.80 38.44 36.99 36.18 36.40 36.81 37.42 38.24 38.35 38.38 38.50 38.72 38.17 38.09 38.13 37.91 38.17
21.97 21.92 22.01 22.45 22.99 23.56 23.97 24.25 24.50 24.61 24.61 24.40 24.45 24.70 24.93 24.97 25.05 24.92 24.80 24.77 25.24 25.41 25.25 24.60 24.12 23.82 23.71 23.76 24.11 24.39 24.62 25.10 25.57 26.20 26.88 27.40 27.64 27.71 28.03 28.84 28.79 30.53 33.21 36.18 37.09 37.75 38.21 38.62 38.87 39.19 39.52 39.90 39.32 37.61 35.86 34.96 34.81 35.15 35.72 36.31 36.96 37.50 38.18 39.27 39.58 39.13 38.73 38.78 38.73
21.66 21.68 21.85 22.26 22.91 23.56 24.09 24.29 24.40 24.44 24.44 24.46 24.61 24.79 24.99 25.12 25.28 25.35 25.50 25.84 25.77 25.12 24.39 24.24 24.43 24.36 24.09 24.30 24.24 24.33 24.53 24.95 25.62 26.61 27.52 27.89 27.40 27.25 27.48 28.40 28.55 30.84 33.73 36.00 36.76 37.31 37.76 38.09 38.38 38.74 39.07 39.45 38.50 36.76 35.14 34.24 34.40 34.55 34.72 34.88 35.43 36.18 36.88 37.66 38.60 39.34 39.65 39.78 39.78
21.87 21.81 22.00 22.36 23.14 23.73 24.04 24.19 24.23 24.27 24.33 24.44 24.70 24.90 25.09 25.12 25.17 25.29 25.68 26.46 26.51 25.97 25.29 24.98 25.00 24.76 24.46 24.35 24.49 24.76 25.42 26.92 26.48 25.88 25.43 25.57 25.71 26.07 26.66 27.51 28.53 31.16 34.18 35.80 36.36 36.86 37.24 37.57 37.85 38.14 38.54 38.84 37.52 35.80 34.21 33.28 33.58 33.80 33.90 34.01 34.39 34.96 35.66 36.36 37.18 38.32 39.35 40.08 40.34
22.06 22.04 22.32 22.72 23.20 23.65 23.92 23.95 24.03 24.09 24.20 24.35 24.67 24.87 25.06 25.02 25.00 25.17 25.73 26.96 27.32 26.70 25.92 25.65 25.51 25.39 25.24 25.20 24.65 24.84 25.48 26.31 25.76 25.16 24.80 24.78 24.84 25.42 26.10 26.79 27.89 30.77 33.83 35.37 35.93 36.32 36.66 36.96 37.32 37.65 37.89 37.75 36.14 34.63 33.33 32.43 32.67 32.76 32.90 33.08 33.49 33.89 34.37 35.04 35.87 36.83 38.06 39.17 39.99
22.37 22.33 22.57 22.97 23.28 23.58 23.76 23.88 23.96 24.04 24.13 24.31 24.59 24.75 24.95 25.04 25.15 25.40 26.05 27.42 27.14 26.40 25.69 25.73 25.71 25.46 25.17 25.30 25.26 25.76 26.08 25.59 25.35 25.26 25.28 25.32 24.88 24.88 25.24 25.92 26.70 29.58 32.85 34.84 35.34 35.78 36.08 36.46 36.83 37.20 37.12 36.35 34.72 33.62 32.90 32.52 32.61 32.40 32.29 32.42 32.82 33.17 33.60 34.15 34.84 35.67 36.53 37.65 38.71
23.15 22.90 22.88 23.18 23.49 23.75 23.91 24.00 24.00 23.98 24.12 24.28 24.44 24.64 24.80 24.97 25.23 25.71 26.30 27.21 26.18 25.64 25.42 25.63 25.70 25.60 25.39 25.33 25.67 25.92 25.97 25.70 25.61 25.63 25.98 26.53 26.03 25.52 25.37 25.86 25.88 28.08 31.19 33.92 34.73 35.26 35.66 36.04 36.42 36.66 36.25 34.91 33.49 32.70 32.35 32.26 32.41 32.26 32.02 31.95 32.23 32.48 32.88 33.67 34.19 34.80 35.43 36.23 37.50
23.91 23.59 23.44 23.53 23.73 23.96 24.07 24.07 23.95 23.88 24.00 24.29 24.48 24.74 24.97 25.12 25.39 25.89 26.56 27.46 26.14 25.48 25.28 25.41 25.46 25.54 25.73 25.81 26.13 26.27 26.22 26.14 26.25 26.24 26.10 26.12 25.97 25.75 25.61 25.80 25.79 27.30 29.81 32.89 34.11 34.78 35.22 35.63 36.05 36.25 35.79 34.14 32.82 32.18 31.96 31.96 31.88 31.78 31.80 31.91 32.19 32.26 32.56 33.28 33.79 34.22 34.80 35.47 37.16
24.44 24.15 23.91 23.75 23.78 23.91 23.98 24.00 23.93 23.98 24.08 24.41 24.64 24.85 25.10 25.25 25.63 26.29 27.02 27.49 26.26 25.51 25.19 25.23 25.30 25.63 26.06 26.66 26.84 26.73 26.47 26.41 26.61 26.71 26.57 25.92 26.10 26.77 27.28 26.84 26.55 27.52 29.56 32.49 33.77 34.50 34.90 35.35 35.72 35.96 35.72 34.37 32.89 32.12 31.80 31.65 31.22 31.18 31.27 31.55 31.81 31.93 32.14 32.74 33.19 33.66 34.16 34.78 37.33
24.72 24.52 24.15 23.83 23.92 24.02 24.03 23.93 24.04 24.31 24.52 24.70 24.73 24.83 25.08 25.43 26.28 27.02 27.49 27.41 26.41 25.82 25.48 25.53 25.46 25.78 26.51 27.59 27.16 26.63 26.28 26.33 26.33 26.41 26.55 26.43 26.93 28.36 29.26 28.11 27.21 27.64 29.19 31.83 33.26 34.06 34.52 34.93 35.26 35.66 35.39 34.07 32.70 32.02 31.73 31.37 30.92 30.74 30.77 31.09 31.34 31.49 31.80 32.23 32.66 33.07 33.48 33.90 36.11
24.71 24.60 24.51 24.43 24.32 24.26 24.18 24.12 24.24 24.54 24.81 24.86 24.71 25.16 25.88 26.64 26.88 26.87 26.78 26.63 26.11 25.97 26.00 26.18 25.97 26.04 26.48 27.38 27.00 26.37 25.86 25.81 26.08 26.24 26.37 26.86 27.17 28.29 28.84 27.84 27.03 26.94 27.76 29.87 32.09 33.42 34.13 34.62 34.95 35.40 35.32 34.07 32.70 31.97 31.64 31.19 30.66 30.32 30.29 30.54 30.95 31.16 31.47 31.68 32.17 32.64 32.96 33.17 34.13
MSLP
1017.37 1017.25 1017.09 1016.97 1016.85 1016.73 1016.61 1016.45 1016.37 1016.25 1016.17 1016.01 1015.89 1015.73 1015.53 1015.41 1015.25 1015.13 1014.97 1014.85 1014.69 1014.61 1014.49 1014.37 1014.25 1014.13 1013.97 1013.81 1013.65 1013.53 1013.37 1013.21 1013.05 1012.93 1012.77 1012.69 1012.53 1012.41 1012.25 1012.13 1012.01 1011.89 1011.81 1011.69 1011.65 1011.53 1011.45 1011.41 1011.25 1011.13 1011.01 1010.89 1010.89 1010.89 1010.89 1010.77 1010.57 1010.41 1010.25 1010.21 1010.13 1010.05 1009.97 1009.93 1009.85 1009.81 1009.77 1009.73 1009.69
1017.61 1017.49 1017.37 1017.17 1017.09 1016.93 1016.77 1016.65 1016.57 1016.49 1016.37 1016.25 1016.13 1016.01 1015.81 1015.69 1015.53 1015.41 1015.25 1015.13 1014.97 1014.81 1014.65 1014.49 1014.37 1014.21 1014.05 1013.89 1013.73 1013.61 1013.45 1013.33 1013.17 1013.01 1012.89 1012.77 1012.65 1012.53 1012.37 1012.25 1012.13 1012.01 1011.93 1011.85 1011.81 1011.73 1011.69 1011.61 1011.53 1011.41 1011.29 1011.13 1011.09 1011.05 1011.01 1010.97 1010.77 1010.57 1010.41 1010.33 1010.25 1010.17 1010.13 1010.05 1009.97 1009.97 1009.89 1009.85 1009.81
1017.81 1017.69 1017.53 1017.41 1017.33 1017.17 1017.01 1016.85 1016.81 1016.69 1016.53 1016.41 1016.37 1016.25 1016.05 1015.93 1015.81 1015.69 1015.53 1015.41 1015.25 1015.01 1014.81 1014.69 1014.53 1014.41 1014.21 1013.97 1013.81 1013.69 1013.57 1013.41 1013.29 1013.13 1012.97 1012.85 1012.69 1012.61 1012.53 1012.41 1012.25 1012.13 1012.05 1011.97 1011.93 1011.85 1011.81 1011.73 1011.69 1011.57 1011.49 1011.41 1011.29 1011.25 1011.13 1011.05 1010.93 1010.85 1010.69 1010.61 1010.41 1010.29 1010.21 1010.17 1010.13 1010.09 1010.01 1009.97 1009.93
1018.01 1017.89 1017.77 1017.69 1017.61 1017.49 1017.37 1017.25 1017.05 1016.85 1016.69 1016.57 1016.49 1016.37 1016.25 1016.09 1015.97 1015.85 1015.73 1015.53 1015.33 1015.17 1015.01 1014.85 1014.69 1014.53 1014.37 1014.17 1013.97 1013.81 1013.69 1013.53 1013.41 1013.25 1013.13 1012.97 1012.85 1012.73 1012.61 1012.49 1012.41 1012.29 1012.21 1012.13 1012.01 1011.97 1011.85 1011.81 1011.77 1011.69 1011.69 1011.61 1011.53 1011.41 1011.33 1011.21 1011.09 1011.01 1010.97 1010.81 1010.57 1010.49 1010.41 1010.33 1010.25 1010.17 1010.13 1010.05 1010.01
1018.17 1018.13 1018.01 1017.93 1017.81 1017.69 1017.53 1017.41 1017.29 1017.13 1016.93 1016.73 1016.61 1016.49 1016.37 1016.25 1016.13 1015.97 1015.81 1015.61 1015.49 1015.37 1015.25 1015.05 1014.89 1014.69 1014.53 1014.33 1014.13 1013.97 1013.81 1013.65 1013.53 1013.41 1013.25 1013.13 1012.97 1012.85 1012.69 1012.61 1012.53 1012.45 1012.37 1012.25 1012.17 1012.09 1011.97 1011.89 1011.81 1011.81 1011.81 1011.69 1011.65 1011.53 1011.45 1011.37 1011.25 1011.17 1011.09 1010.89 1010.77 1010.69 1010.57 1010.49 1010.41 1010.33 1010.25 1010.17 1010.13
1018.41 1018.29 1018.17 1018.05 1017.97 1017.81 1017.69 1017.53 1017.41 1017.29 1017.13 1016.93 1016.81 1016.65 1016.53 1016.41 1016.25 1016.13 1016.01 1015.85 1015.69 1015.53 1015.37 1015.13 1015.01 1014.85 1014.65 1014.45 1014.25 1014.09 1013.93 1013.77 1013.65 1013.53 1013.41 1013.25 1013.13 1012.97 1012.85 1012.69 1012.65 1012.57 1012.53 1012.41 1012.37 1012.25 1012.13 1012.05 1011.97 1011.89 1011.81 1011.77 1011.69 1011.61 1011.53 1011.45 1011.41 1011.29 1011.17 1011.05 1010.97 1010.89 1010.77 1010.69 1010.61 1010.53 1010.45 1010.41 1010.29
1018.69 1018.49 1018.33 1018.25 1018.09 1017.97 1017.81 1017.69 1017.53 1017.41 1017.25 1017.09 1016.93 1016.85 1016.69 1016.57 1016.41 1016.29 1016.17 1015.97 1015.81 1015.61 1015.41 1015.25 1015.17 1015.05 1014.85 1014.69 1014.45 1014.25 1014.09 1013.93 1013.77 1013.65 1013.49 1013.37 1013.21 1013.09 1012.97 1012.89 1012.77 1012.69 1012.61 1012.53 1012.45 1012.41 1012.33 1012.25 1012.13 1012.01 1011.93 1011.81 1011.77 1011.69 1011.61 1011.57 1011.49 1011.41 1011.33 1011.25 1011.17 1011.13 1010.97 1010.85 1010.69 1010.61 1010.57 1010.57 1010.53
1018.73 1018.61 1018.49 1018.37 1018.21 1018.09 1017.93 1017.81 1017.65 1017.49 1017.33 1017.21 1017.13 1017.01 1016.89 1016.69 1016.53 1016.41 1016.21 1016.01 1015.85 1015.73 1015.57 1015.45 1015.37 1015.25 1015.05 1014.85 1014.65 1014.45 1014.25 1014.09 1013.93 1013.77 1013.65 1013.53 1013.37 1013.25 1013.13 1012.97 1012.89 1012.85 1012.73 1012.69 1012.61 1012.53 1012.45 1012.41 1012.29 1012.17 1012.09 1011.97 1011.89 1011.81 1011.73 1011.69 1011.57 1011.53 1011.49 1011.41 1011.29 1011.25 1011.17 1011.09 1010.93 1010.85 1010.81 1010.77 1010.69
1018.81 1018.69 1018.53 1018.41 1018.29 1018.17 1018.05 1017.93 1017.77 1017.65 1017.53 1017.41 1017.25 1017.17 1017.01 1016.85 1016.69 1016.53 1016.33 1016.17 1016.05 1015.85 1015.69 1015.53 1015.41 1015.29 1015.13 1014.97 1014.81 1014.65 1014.45 1014.25 1014.09 1013.93 1013.77 1013.61 1013.45 1013.33 1013.21 1013.09 1012.97 1012.93 1012.85 1012.77 1012.69 1012.65 1012.57 1012.53 1012.41 1012.29 1012.21 1012.13 1012.01 1011.93 1011.81 1011.73 1011.65 1011.61 1011.53 1011.53 1011.41 1011.33 1011.25 1011.21 1011.13 1011.09 1011.05 1010.97 1010.89
1018.97 1018.85 1018.69 1018.53 1018.41 1018.29 1018.13 1017.97 1017.81 1017.69 1017.61 1017.49 1017.37 1017.25 1017.09 1016.93 1016.81 1016.65 1016.53 1016.37 1016.13 1015.97 1015.77 1015.61 1015.45 1015.29 1015.13 1014.97 1014.89 1014.77 1014.61 1014.45 1014.25 1014.09 1013.89 1013.73 1013.61 1013.45 1013.33 1013.21 1013.09 1012.97 1012.93 1012.89 1012.85 1012.73 1012.69 1012.57 1012.53 1012.41 1012.29 1012.21 1012.13 1012.05 1011.93 1011.81 1011.73 1011.65 1011.61 1011.57 1011.53 1011.49 1011.41 1011.37 1011.37 1011.33 1011.25 1011.17 1011.09
1019.17 1019.05 1018.89 1018.77 1018.57 1018.41 1018.25 1018.09 1017.93 1017.81 1017.69 1017.57 1017.45 1017.29 1017.17 1017.01 1016.93 1016.77 1016.61 1016.45 1016.25 1016.05 1015.89 1015.73 1015.53 1015.41 1015.25 1015.09 1014.97 1014.85 1014.73 1014.57 1014.41 1014.25 1014.05 1013.85 1013.73 1013.61 1013.49 1013.33 1013.21 1013.09 1012.97 1012.89 1012.85 1012.81 1012.73 1012.69 1012.61 1012.53 1012.41 1012.29 1012.25 1012.13 1012.01 1011.97 1011.81 1011.77 1011.69 1011.65 1011.61 1011.61 1011.57 1011.53 1011.53 1011.53 1011.49 1011.37 1011.25
1019.33 1019.17 1019.01 1018.85 1018.73 1018.53 1018.41 1018.25 1018.09 1017.97 1017.81 1017.69 1017.57 1017.45 1017.29 1017.21 1017.05 1016.89 1016.69 1016.53 1016.37 1016.17 1015.97 1015.81 1015.69 1015.53 1015.41 1015.25 1015.09 1014.93 1014.81 1014.69 1014.53 1014.33 1014.17 1014.01 1013.85 1013.69 1013.57 1013.41 1013.29 1013.13 1013.01 1012.93 1012.85 1012.81 1012.77 1012.77 1012.69 1012.61 1012.53 1012.41 1012.37 1012.25 1012.17 1012.09 1011.97 1011.89 1011.81 1011.73 1011.73 1011.69 1011.69 1011.69 1011.69 1011.69 1011.61 1011.53 1011.41
1019.41 1019.25 1019.13 1018.97 1018.85 1018.69 1018.53 1018.41 1018.25 1018.13 1017.97 1017.85 1017.69 1017.57 1017.45 1017.33 1017.17 1017.01 1016.85 1016.69 1016.53 1016.33 1016.13 1015.97 1015.81 1015.69 1015.53 1015.41 1015.21 1015.05 1014.89 1014.73 1014.57 1014.41 1014.29 1014.13 1013.97 1013.81 1013.65 1013.53 1013.37 1013.21 1013.09 1012.97 1012.85 1012.81 1012.77 1012.73 1012.69 1012.65 1012.57 1012.53 1012.45 1012.37 1012.25 1012.17 1012.13 1012.05 1011.97 1011.89 1011.81 1011.81 1011.81 1011.77 1011.77 1011.73 1011.69 1011.53 1011.41
1019.53 1019.41 1019.25 1019.13 1018.97 1018.81 1018.69 1018.53 1018.41 1018.25 1018.13 1018.01 1017.89 1017.73 1017.57 1017.45 1017.25 1017.13 1016.97 1016.85 1016.69 1016.53 1016.33 1016.13 1015.93 1015.77 1015.65 1015.53 1015.37 1015.17 1015.01 1014.85 1014.65 1014.49 1014.33 1014.13 1013.97 1013.85 1013.73 1013.57 1013.41 1013.29 1013.13 1012.97 1012.85 1012.73 1012.69 1012.65 1012.61 1012.57 1012.53 1012.53 1012.45 1012.41 1012.33 1012.25 1012.21 1012.13 1012.05 1011.97 1011.93 1011.85 1011.81 1011.73 1011.69 1011.69 1011.61 1011.49 1011.41
1019.65 1019.53 1019.37 1019.21 1019.09 1018.93 1018.81 1018.69 1018.57 1018.41 1018.29 1018.17 1018.01 1017.85 1017.69 1017.53 1017.41 1017.25 1017.13 1016.97 1016.81 1016.65 1016.49 1016.25 1016.09 1015.89 1015.73 1015.61 1015.45 1015.25 1015.09 1014.89 1014.73 1014.53 1014.37 1014.17 1014.01 1013.89 1013.77 1013.65 1013.49 1013.37 1013.25 1013.09 1012.89 1012.77 1012.69 1012.61 1012.57 1012.53 1012.45 1012.41 1012.41 1012.33 1012.29 1012.25 1012.21 1012.13 1012.09 1012.01 1011.97 1011.89 1011.81 1011.69 1011.65 1011.57 1011.49 1011.41 1011.29
1019.73 1019.57 1019.45 1019.33 1019.21 1019.09 1018.97 1018.85 1018.69 1018.57 1018.45 1018.29 1018.13 1017.97 1017.81 1017.65 1017.49 1017.37 1017.21 1017.05 1016.89 1016.73 1016.57 1016.41 1016.25 1016.05 1015.81 1015.65 1015.53 1015.33 1015.13 1014.97 1014.81 1014.65 1014.45 1014.29 1014.13 1013.97 1013.81 1013.69 1013.53 1013.41 1013.29 1013.13 1012.97 1012.85 1012.73 1012.65 1012.53 1012.49 1012.41 1012.33 1012.29 1012.25 1012.21 1012.17 1012.13 1012.09 1012.01 1011.97 1011.89 1011.81 1011.77 1011.69 1011.61 1011.53 1011.45 1011.37 1011.25
1019.81 1019.69 1019.53 1019.45 1019.29 1019.21 1019.13 1018.97 1018.85 1018.69 1018.57 1018.41 1018.25 1018.09 1017.97 1017.77 1017.61 1017.45 1017.29 1017.17 1017.05 1016.85 1016.69 1016.53 1016.41 1016.21 1015.97 1015.77 1015.57 1015.41 1015.25 1015.09 1014.89 1014.77 1014.61 1014.45 1014.29 1014.13 1013.97 1013.81 1013.69 1013.53 1013.37 1013.25 1013.09 1012.97 1012.81 1012.69 1012.53 1012.49 1012.41 1012.29 1012.25 1012.13 1012.09 1012.05 1011.97 1011.97 1011.93 1011.85 1011.81 1011.73 1011.69 1011.61 1011.53 1011.49 1011.41 1011.33 1011.25
1019.85 1019.73 1019.61 1019.49 1019.41 1019.29 1019.17 1019.09 1018.97 1018.81 1018.69 1018.53 1018.37 1018.21 1018.05 1017.89 1017.73 1017.57 1017.41 1017.25 1017.13 1017.01 1016.85 1016.65 1016.45 1016.29 1016.13 1015.93 1015.73 1015.57 1015.41 1015.25 1015.09 1014.93 1014.77 1014.61 1014.45 1014.29 1014.13 1013.93 1013.77 1013.61 1013.45 1013.33 1013.17 1013.01 1012.85 1012.69 1012.61 1012.49 1012.41 1012.29 1012.21 1012.13 1012.01 1011.97 1011.89 1011.85 1011.81 1011.73 1011.69 1011.65 1011.57 1011.53 1011.49 1011.41 1011.41 1011.37 1011.29
1019.93 1019.77 1019.65 1019.53 1019.45 1019.37 1019.25 1019.13 1018.97 1018.85 1018.73 1018.61 1018.45 1018.29 1018.13 1017.97 1017.81 1017.69 1017.53 1017.33 1017.17 1017.09 1016.97 1016.81 1016.53 1016.37 1016.21 1016.05 1015.85 1015.69 1015.53 1015.37 1015.21 1015.05 1014.85 1014.69 1014.53 1014.37 1014.21 1014.01 1013.85 1013.69 1013.53 1013.41 1013.21 1013.05 1012.93 1012.77 1012.65 1012.53 1012.41 1012.33 1012.25 1012.13 1011.97 1011.93 1011.85 1011.77 1011.69 1011.65 1011.61 1011.53 1011.49 1011.45 1011.41 1011.37 1011.33 1011.33 1011.25
1019.93 1019.81 1019.69 1019.57 1019.49 1019.37 1019.25 1019.13 1019.01 1018.93 1018.81 1018.65 1018.53 1018.41 1018.25 1018.05 1017.93 1017.77 1017.61 1017.45 1017.25 1017.13 1017.05 1016.85 1016.69 1016.49 1016.25 1016.09 1015.93 1015.73 1015.57 1015.45 1015.29 1015.13 1014.97 1014.77 1014.61 1014.45 1014.29 1014.13 1013.97 1013.77 1013.61 1013.45 1013.25 1013.09 1012.93 1012.81 1012.69 1012.57 1012.45 1012.37 1012.25 1012.13 1012.01 1011.89 1011.81 1011.73 1011.65 1011.57 1011.53 1011.53 1011.45 1011.41 1011.37 1011.33 1011.29 1011.25 1011.25
1019.89 1019.77 1019.69 1019.57 1019.49 1019.41 1019.25 1019.13 1019.01 1018.89 1018.81 1018.69 1018.57 1018.41 1018.29 1018.13 1017.97 1017.85 1017.69 1017.53 1017.37 1017.21 1017.05 1016.93 1016.77 1016.57 1016.37 1016.17 1016.01 1015.81 1015.69 1015.53 1015.37 1015.25 1015.09 1014.85 1014.69 1014.53 1014.41 1014.25 1014.05 1013.81 1013.65 1013.45 1013.25 1013.13 1012.93 1012.77 1012.69 1012.53 1012.45 1012.37 1012.25 1012.17 1012.09 1011.97 1011.85 1011.73 1011.61 1011.53 1011.49 1011.45 1011.41 1011.41 1011.37 1011.33 1011.25 1011.25 1011.21
1019.85 1019.69 1019.61 1019.53 1019.41 1019.33 1019.21 1019.09 1018.97 1018.89 1018.77 1018.69 1018.53 1018.41 1018.29 1018.17 1018.05 1017.89 1017.77 1017.61 1017.45 1017.29 1017.13 1016.97 1016.85 1016.65 1016.45 1016.29 1016.13 1015.93 1015.73 1015.53 1015.41 1015.25 1015.13 1014.97 1014.77 1014.57 1014.41 1014.25 1014.13 1013.93 1013.69 1013.53 1013.33 1013.13 1012.97 1012.77 1012.65 1012.53 1012.41 1012.33 1012.25 1012.17 1012.09 1011.97 1011.89 1011.77 1011.61 1011.53 1011.41 1011.37 1011.33 1011.29 1011.29 1011.25 1011.25 1011.17 1011.13
1019.77 1019.69 1019.57 1019.45 1019.33 1019.25 1019.13 1019.05 1018.97 1018.85 1018.77 1018.65 1018.49 1018.37 1018.25 1018.17 1018.01 1017.89 1017.77 1017.65 1017.49 1017.33 1017.21 1017.05 1016.85 1016.69 1016.49 1016.33 1016.17 1015.97 1015.81 1015.57 1015.41 1015.21 1015.09 1014.97 1014.81 1014.61 1014.41 1014.29 1014.13 1013.97 1013.77 1013.57 1013.37 1013.17 1012.97 1012.81 1012.57 1012.41 1012.33 1012.25 1012.17 1012.09 1011.97 1011.89 1011.81 1011.69 1011.61 1011.49 1011.37 1011.25 1011.25 1011.21 1011.21 1011.17 1011.13 1011.13 1011.09
1019.77 1019.65 1019.49 1019.37 1019.25 1019.17 1019.13 1019.01 1018.89 1018.81 1018.69 1018.57 1018.45 1018.33 1018.25 1018.13 1017.97 1017.85 1017.69 1017.61 1017.49 1017.37 1017.25 1017.09 1016.89 1016.69 1016.53 1016.33 1016.17 1016.01 1015.85 1015.69 1015.45 1015.25 1015.01 1014.85 1014.73 1014.61 1014.45 1014.25 1014.13 1013.97 1013.77 1013.57 1013.41 1013.21 1012.97 1012.77 1012.53 1012.41 1012.25 1012.17 1012.09 1011.97 1011.89 1011.81 1011.73 1011.65 1011.53 1011.41 1011.33 1011.25 1011.13 1011.09 1011.05 1011.05 1011.05 1010.97 1010.97
1019.69 1019.57 1019.41 1019.33 1019.25 1019.13 1019.01 1018.93 1018.85 1018.77 1018.65 1018.53 1018.41 1018.29 1018.21 1018.09 1017.93 1017.81 1017.69 1017.57 1017.49 1017.37 1017.21 1017.05 1016.93 1016.73 1016.53 1016.33 1016.13 1015.97 1015.85 1015.73 1015.53 1015.33 1015.09 1014.85 1014.69 1014.57 1014.41 1014.29 1014.13 1013.97 1013.73 1013.53 1013.25 1013.05 1012.85 1012.69 1012.53 1012.37 1012.21 1012.13 1012.01 1011.93 1011.81 1011.73 1011.69 1011.57 1011.49 1011.41 1011.29 1011.17 1011.09 1011.01 1010.97 1010.97 1010.97 1010.93 1010.89
1019.69 1019.53 1019.41 1019.29 1019.21 1019.13 1018.97 1018.89 1018.85 1018.69 1018.57 1018.45 1018.33 1018.25 1018.13 1018.01 1017.89 1017.81 1017.69 1017.57 1017.41 1017.29 1017.17 1017.05 1016.93 1016.69 1016.53 1016.37 1016.21 1016.01 1015.85 1015.73 1015.53 1015.41 1015.21 1014.97 1014.77 1014.53 1014.41 1014.25 1014.13 1013.97 1013.73 1013.53 1013.25 1013.01 1012.81 1012.65 1012.45 1012.33 1012.17 1012.09 1011.97 1011.85 1011.77 1011.69 1011.57 1011.53 1011.45 1011.37 1011.25 1011.13 1011.09 1010.97 1010.93 1010.89 1010.85 1010.85 1010.81
1019.65 1019.53 1019.37 1019.25 1019.13 1019.09 1018.97 1018.89 1018.77 1018.65 1018.53 1018.41 1018.29 1018.21 1018.05 1017.97 1017.81 1017.73 1017.69 1017.53 1017.41 1017.25 1017.13 1017.05 1016.89 1016.69 1016.53 1016.41 1016.25 1016.09 1015.89 1015.69 1015.53 1015.41 1015.25 1015.05 1014.85 1014.69 1014.45 1014.25 1014.09 1013.93 1013.73 1013.53 1013.25 1013.01 1012.81 1012.61 1012.41 1012.25 1012.13 1012.01 1011.89 1011.81 1011.73 1011.65 1011.53 1011.45 1011.41 1011.29 1011.21 1011.13 1011.05 1010.97 1010.85 1010.85 1010.77 1010.73 1010.69
1019.65 1019.49 1019.33 1019.17 1019.13 1019.01 1018.89 1018.81 1018.69 1018.57 1018.45 1018.37 1018.25 1018.13 1017.97 1017.89 1017.81 1017.69 1017.53 1017.45 1017.33 1017.21 1017.05 1016.97 1016.81 1016.61 1016.45 1016.37 1016.25 1016.13 1015.93 1015.73 1015.57 1015.41 1015.25 1015.05 1014.85 1014.69 1014.49 1014.25 1014.09 1013.85 1013.65 1013.41 1013.17 1012.97 1012.81 1012.57 1012.41 1012.25 1012.09 1011.97 1011.81 1011.73 1011.69 1011.61 1011.49 1011.41 1011.33 1011.25 1011.13 1011.05 1010.97 1010.85 1010.77 1010.73 1010.69 1010.69 1010.61
1019.61 1019.45 1019.33 1019.21 1019.13 1018.97 1018.85 1018.69 1018.65 1018.53 1018.37 1018.25 1018.13 1018.01 1017.89 1017.81 1017.69 1017.57 1017.45 1017.37 1017.25 1017.13 1017.01 1016.85 1016.65 1016.53 1016.41 1016.29 1016.17 1016.05 1015.89 1015.69 1015.53 1015.37 1015.21 1015.01 1014.85 1014.65 1014.41 1014.21 1014.01 1013.77 1013.53 1013.33 1013.13 1012.93 1012.73 1012.53 1012.37 1012.21 1012.05 1011.85 1011.77 1011.69 1011.57 1011.53 1011.41 1011.29 1011.21 1011.13 1010.97 1010.93 1010.85 1010.77 1010.69 1010.65 1010.61 1010.57 1010.53
1019.53 1019.45 1019.33 1019.21 1019.09 1018.93 1018.81 1018.65 1018.53 1018.41 1018.25 1018.13 1018.01 1017.93 1017.81 1017.69 1017.57 1017.49 1017.37 1017.25 1017.17 1017.01 1016.89 1016.69 1016.61 1016.49 1016.41 1016.25 1016.13 1015.97 1015.81 1015.65 1015.49 1015.37 1015.25 1015.01 1014.85 1014.61 1014.37 1014.17 1013.97 1013.73 1013.53 1013.25 1013.09 1012.85 1012.69 1012.45 1012.29 1012.13 1011.97 1011.81 1011.69 1011.61 1011.49 1011.41 1011.33 1011.25 1011.13 1011.01 1010.93 1010.85 1010.77 1010.69 1010.65 1010.57 1010.53 1010.49 1010.45
1019.49 1019.41 1019.29 1019.21 1019.09 1018.93 1018.77 1018.57 1018.41 1018.29 1018.17 1018.01 1017.93 1017.81 1017.69 1017.57 1017.45 1017.37 1017.25 1017.17 1017.01 1016.85 1016.69 1016.57 1016.53 1016.41 1016.29 1016.13 1016.01 1015.89 1015.77 1015.57 1015.41 1015.29 1015.17 1015.01 1014.81 1014.53 1014.33 1014.13 1013.97 1013.73 1013.49 1013.21 1012.97 1012.77 1012.57 1012.41 1012.25 1012.13 1011.97 1011.81 1011.69 1011.53 1011.45 1011.37 1011.25 1011.17 1011.09 1010.97 1010.85 1010.77 1010.69 1010.61 1010.53 1010.49 1010.41 1010.37 1010.33
1019.41 1019.37 1019.25 1019.13 1019.01 1018.85 1018.69 1018.49 1018.37 1018.21 1018.09 1017.97 1017.81 1017.69 1017.57 1017.45 1017.29 1017.21 1017.09 1016.97 1016.85 1016.69 1016.53 1016.41 1016.37 1016.21 1016.09 1015.97 1015.85 1015.73 1015.61 1015.49 1015.37 1015.17 1015.01 1014.89 1014.69 1014.53 1014.29 1014.13 1013.93 1013.73 1013.45 1013.17 1012.93 1012.69 1012.53 1012.33 1012.17 1012.01 1011.89 1011.73 1011.61 1011.53 1011.41 1011.33 1011.21 1011.13 1011.01 1010.89 1010.81 1010.69 1010.61 1010.53 1010.41 1010.33 1010.25 1010.25 1010.17
1019.29 1019.25 1019.17 1019.05 1018.89 1018.73 1018.53 1018.41 1018.29 1018.13 1018.01 1017.85 1017.73 1017.61 1017.45 1017.29 1017.13 1016.97 1016.85 1016.73 1016.65 1016.53 1016.41 1016.29 1016.17 1016.05 1015.89 1015.81 1015.61 1015.49 1015.37 1015.25 1015.17 1015.01 1014.85 1014.73 1014.61 1014.45 1014.25 1014.09 1013.89 1013.69 1013.41 1013.13 1012.89 1012.69 1012.49 1012.29 1012.13 1011.93 1011.81 1011.69 1011.53 1011.45 1011.37 1011.25 1011.17 1011.05 1010.93 1010.81 1010.69 1010.61 1010.53 1010.45 1010.33 1010.25 1010.13 1010.05 1009.97
1019.21 1019.13 1019.01 1018.89 1018.73 1018.61 1018.45 1018.29 1018.17 1018.05 1017.93 1017.81 1017.65 1017.53 1017.37 1017.21 1017.01 1016.85 1016.69 1016.53 1016.41 1016.29 1016.21 1016.13 1015.97 1015.85 1015.69 1015.61 1015.49 1015.33 1015.13 1014.97 1014.89 1014.81 1014.69 1014.57 1014.49 1014.33 1014.17 1013.97 1013.81 1013.61 1013.37 1013.13 1012.89 1012.69 1012.45 1012.25 1012.05 1011.89 1011.73 1011.57 1011.49 1011.41 1011.29 1011.21 1011.13 1010.97 1010.85 1010.73 1010.61 1010.53 1010.41 1010.33 1010.25 1010.13 1010.01 1009.93 1009.81
1019.09 1018.97 1018.85 1018.73 1018.61 1018.49 1018.33 1018.21 1018.05 1017.97 1017.81 1017.69 1017.53 1017.37 1017.21 1017.09 1016.97 1016.81 1016.57 1016.37 1016.25 1016.09 1015.97 1015.81 1015.69 1015.61 1015.45 1015.37 1015.25 1015.13 1014.97 1014.77 1014.65 1014.53 1014.45 1014.37 1014.25 1014.13 1013.97 1013.81 1013.61 1013.45 1013.25 1013.09 1012.85 1012.69 1012.45 1012.21 1012.01 1011.81 1011.69 1011.53 1011.41 1011.33 1011.25 1011.13 1011.01 1010.89 1010.77 1010.65 1010.49 1010.37 1010.25 1010.13 1010.05 1009.97 1009.85 1009.73 1009.65
1018.93 1018.85 1018.77 1018.65 1018.49 1018.37 1018.25 1018.09 1017.97 1017.85 1017.73 1017.57 1017.41 1017.25 1017.09 1016.89 1016.73 1016.61 1016.45 1016.25 1016.09 1015.97 1015.77 1015.61 1015.45 1015.33 1015.25 1015.09 1014.97 1014.85 1014.69 1014.57 1014.41 1014.29 1014.17 1014.13 1014.05 1013.93 1013.73 1013.57 1013.41 1013.25 1013.13 1012.97 1012.77 1012.57 1012.41 1012.17 1011.97 1011.81 1011.65 1011.49 1011.41 1011.25 1011.13 1011.05 1010.89 1010.73 1010.61 1010.49 1010.33 1010.21 1010.13 1009.97 1009.89 1009.81 1009.69 1009.57 1009.45
1018.73 1018.69 1018.61 1018.53 1018.41 1018.25 1018.09 1017.97 1017.81 1017.73 1017.61 1017.45 1017.25 1017.13 1016.97 1016.81 1016.57 1016.41 1016.25 1016.13 1016.01 1015.81 1015.65 1015.45 1015.25 1015.13 1015.01 1014.85 1014.69 1014.53 1014.45 1014.37 1014.25 1014.09 1013.93 1013.81 1013.73 1013.65 1013.49 1013.33 1013.17 1013.05 1012.97 1012.85 1012.65 1012.49 1012.29 1012.13 1011.93 1011.73 1011.57 1011.45 1011.33 1011.21 1011.05 1010.93 1010.77 1010.57 1010.45 1010.29 1010.13 1010.01 1009.93 1009.81 1009.73 1009.61 1009.49 1009.41 1009.25
1018.53 1018.49 1018.45 1018.37 1018.25 1018.09 1017.97 1017.81 1017.69 1017.57 1017.45 1017.25 1017.09 1016.93 1016.81 1016.69 1016.45 1016.25 1016.13 1016.01 1015.89 1015.69 1015.53 1015.29 1015.13 1014.97 1014.81 1014.69 1014.49 1014.25 1014.13 1014.09 1013.97 1013.81 1013.69 1013.53 1013.45 1013.41 1013.25 1013.05 1012.85 1012.77 1012.69 1012.61 1012.45 1012.29 1012.13 1011.97 1011.81 1011.61 1011.49 1011.37 1011.25 1011.09 1010.97 1010.81 1010.61 1010.45 1010.29 1010.13 1009.97 1009.81 1009.69 1009.65 1009.53 1009.45 1009.29 1009.17 1009.05
1018.37 1018.29 1018.25 1018.17 1018.09 1017.97 1017.81 1017.69 1017.53 1017.41 1017.25 1017.09 1016.89 1016.69 1016.53 1016.41 1016.25 1016.09 1015.93 1015.81 1015.69 1015.61 1015.41 1015.21 1015.01 1014.81 1014.61 1014.41 1014.25 1014.05 1013.81 1013.69 1013.65 1013.57 1013.49 1013.33 1013.21 1013.13 1012.97 1012.81 1012.53 1012.41 1012.37 1012.29 1012.17 1012.05 1011.93 1011.81 1011.61 1011.45 1011.33 1011.25 1011.09 1010.97 1010.85 1010.69 1010.49 1010.29 1010.13 1009.97 1009.81 1009.65 1009.53 1009.41 1009.37 1009.25 1009.13 1008.97 1008.85
1018.21 1018.13 1018.05 1017.97 1017.89 1017.77 1017.61 1017.45 1017.33 1017.13 1017.01 1016.85 1016.69 1016.53 1016.37 1016.21 1016.01 1015.81 1015.65 1015.53 1015.49 1015.41 1015.25 1015.01 1014.81 1014.61 1014.41 1014.25 1014.09 1013.85 1013.61 1013.41 1013.29 1013.25 1013.17 1013.09 1012.93 1012.81 1012.69 1012.49 1012.25 1012.13 1011.97 1011.93 1011.85 1011.77 1011.69 1011.53 1011.41 1011.25 1011.13 1011.05 1010.93 1010.81 1010.69 1010.53 1010.33 1010.13 1009.97 1009.81 1009.69 1009.53 1009.33 1009.21 1009.13 1009.05 1008.93 1008.81 1008.65
1017.97 1017.93 1017.81 1017.73 1017.65 1017.53 1017.41 1017.25 1017.05 1016.89 1016.73 1016.61 1016.45 1016.29 1016.13 1015.97 1015.77 1015.57 1015.45 1015.33 1015.25 1015.13 1014.97 1014.81 1014.53 1014.37 1014.21 1014.09 1013.89 1013.69 1013.45 1013.17 1012.97 1012.85 1012.81 1012.73 1012.61 1012.53 1012.41 1012.25 1012.05 1011.81 1011.69 1011.61 1011.53 1011.49 1011.41 1011.25 1011.13 1011.01 1010.93 1010.81 1010.69 1010.53 1010.41 1010.29 1010.13 1009.97 1009.73 1009.61 1009.53 1009.41 1009.21 1009.05 1008.93 1008.85 1008.73 1008.61 1008.49
Wind_Speed
10 9 9 9 8 7 6 6 7 6 6 5 6 6 6 6 6 6 7 7 6 6 6 6 6 7 8 9 9 9 8 8 8 8 8 8 7 6 6 6 6 6 6 6 6 6 6 6 5 4 4 4 4 5 5 5 5 5 5 5 4 4 4 4 4 4 4 4 3
11 10 10 10 9 8 6 6 7 7 6 5 6 6 6 5 6 6 6 7 6 6 6 6 7 8 9 10 9 9 8 9 9 8 8 7 7 6 6 6 6 6 6 6 6 5 5 5 5 4 4 4 4 4 5 5 5 5 6 6 4 4 3 4 4 4 4 4 3
10 10 10 10 10 9 8 7 7 8 7 6 6 6 6 5 5 6 6 6 6 6 6 6 7 8 10 10 9 8 8 8 9 9 8 7 7 6 6 5 6 6 6 6 5 5 4 4 4 4 4 4 4 4 4 5 5 5 5 6 4 4 3 3 3 3 3 3 3
10 10 10 10 11 10 9 8 8 9 8 7 6 6 6 5 5 5 6 6 6 6 6 7 7 8 9 10 9 9 9 9 9 9 8 8 7 6 6 5 5 6 5 5 5 5 5 4 3 3 3 4 4 4 4 4 5 4 4 4 4 4 4 3 3 3 3 2 3
10 10 9 9 10 9 8 8 9 9 8 7 7 7 6 6 6 6 6 6 6 7 7 7 7 8 8 9 10 10 9 9 9 8 8 8 8 7 6 5 5 5 5 5 5 5 5 5 3 3 3 3 3 3 3 4 5 4 3 3 3 3 3 3 3 3 3 2 2
9 9 9 8 9 9 8 8 8 8 7 7 8 8 8 7 7 7 7 7 7 7 8 8 9 9 9 10 10 10 9 8 8 8 8 8 8 7 7 6 5 4 3 4 4 4 5 4 3 3 3 3 2 3 3 4 4 4 4 3 3 3 3 3 3 3 3 3 3
8 9 9 9 9 9 9 8 8 7 7 7 9 10 10 9 9 9 9 7 7 7 8 8 9 9 9 10 9 10 10 9 9 8 8 8 8 8 8 7 6 4 3 3 3 3 4 4 3 3 3 3 3 3 3 4 4 4 4 4 3 3 3 4 3 3 3 4 5
8 8 9 9 9 9 9 9 8 8 8 7 9 10 11 10 11 10 10 9 8 8 8 7 8 9 9 9 9 9 10 10 10 9 9 8 8 8 8 7 6 5 4 3 2 2 3 3 2 3 3 3 3 3 3 3 3 3 3 4 3 3 3 3 3 3 3 4 4
8 9 9 9 9 9 9 9 8 8 8 8 9 10 10 10 11 11 10 9 9 8 8 8 9 9 9 9 9 9 9 10 10 10 9 9 9 9 8 7 7 6 5 3 2 2 2 2 2 2 2 2 3 3 4 4 4 4 3 3 3 3 4 4 4 4 4 3 3
9 9 9 9 10 10 9 9 8 8 8 9 10 10 10 11 11 10 9 8 9 9 9 9 10 10 10 9 9 9 9 9 9 9 10 9 9 9 9 8 7 7 6 5 3 2 2 2 2 2 2 2 3 3 4 4 5 4 4 3 3 4 4 4 4 4 4 3 2
9 9 9 9 10 10 9 9 8 8 8 9 10 10 10 11 10 10 9 9 9 10 10 10 10 11 10 9 9 9 9 8 8 9 9 10 10 9 9 8 8 8 7 6 4 3 3 2 2 3 2 2 2 3 3 4 4 4 4 3 3 4 4 3 3 3 3 3 3
8 8 8 8 9 9 9 9 8 8 9 9 10 10 10 9 10 10 10 10 11 11 11 10 10 10 10 9 9 9 9 9 9 9 9 9 9 9 9 9 9 9 8 7 5 3 3 3 3 4 3 3 2 2 2 2 3 4 4 4 4 4 3 3 2 2 2 2 3
8 8 8 9 9 9 9 9 8 8 8 9 9 9 9 9 9 10 10 11 11 10 10 10 10 10 9 9 9 9 9 9 9 9 9 9 9 9 9 9 9 9 8 8 6 5 4 4 4 5 5 4 3 2 2 2 2 3 4 4 4 4 4 4 3 3 2 2 3
7 8 8 8 9 9 8 8 8 7 8 9 9 9 8 8 9 9 9 10 10 10 10 10 10 9 9 10 10 10 10 9 9 9 9 9 9 9 9 9 9 9 8 8 7 6 6 5 5 5 5 5 5 4 3 2 3 3 3 4 4 5 5 5 4 4 3 3 3
7 8 8 8 8 8 8 8 7 7 8 9 9 8 8 8 8 8 9 9 9 9 9 9 10 10 10 10 10 10 10 10 10 10 10 10 10 10 10 10 10 9 9 9 8 8 7 7 6 6 6 6 6 5 4 4 3 3 4 4 4 4 5 5 4 4 4 4 4
7 7 7 7 8 8 8 7 7 7 7 8 8 8 8 8 8 8 9 9 9 9 9 10 10 10 10 11 11 11 10 10 10 10 11 11 11 11 11 11 10 10 9 9 9 8 8 7 7 6 6 6 6 6 5 5 4 4 4 5 5 4 4 4 4 4 4 4 4
6 7 7 7 7 8 8 7 7 7 8 8 9 8 8 8 8 8 9 9 9 9 10 11 10 10 10 11 10 10 10 10 10 10 10 11 11 11 11 11 10 10 10 9 9 9 8 8 7 7 7 7 6 6 6 5 5 5 5 5 5 5 4 4 4 4 4 4 5
6 6 6 7 7 7 7 7 7 7 8 8 9 8 8 8 8 8 9 9 9 10 11 11 11 10 10 11 10 10 9 10 10 10 10 11 11 11 11 11 10 10 9 9 9 9 8 8 8 7 7 7 6 6 6 6 5 5 6 5 5 5 5 4 4 4 3 4 4
6 6 6 7 7 7 7 7 7 7 7 7 8 8 8 9 9 9 9 9 9 10 10 11 11 11 11 11 11 10 9 9 10 11 11 11 11 11 11 11 10 10 10 9 9 9 8 8 8 7 7 7 7 6 6 6 5 5 5 5 5 5 5 5 4 4 4 4 4
6 6 6 6 6 6 6 7 6 6 6 7 7 8 8 9 9 9 9 10 10 10 10 10 11 11 11 11 12 11 10 8 9 10 11 11 11 11 11 11 10 10 10 9 9 9 8 8 8 7 7 7 7 7 7 6 6 6 5 5 5 5 5 5 5 5 5 5 5
6 6 6 5 5 5 6 5 5 6 6 7 7 7 8 8 8 9 9 9 9 10 10 10 10 11 11 12 12 11 11 9 9 10 10 10 10 10 10 10 10 10 9 9 9 9 8 8 8 7 7 6 7 7 7 6 6 6 6 5 5 5 5 5 5 5 5 5 5
6 5 5 5 5 5 5 5 5 5 6 6 6 7 7 7 8 8 8 8 8 9 9 10 10 10 11 11 11 11 10 10 9 9 9 9 10 10 10 9 9 9 9 9 8 8 8 8 8 7 7 6 6 6 6 6 6 6 6 6 6 6 5 5 5 5 6 6 6
6 6 5 5 5 6 6 6 5 6 6 6 6 7 7 7 7 7 7 7 7 7 8 8 9 10 10 10 10 10 10 10 10 10 10 10 10 10 10 9 9 9 9 8 8 8 8 8 8 7 7 6 6 6 6 6 6 6 6 7 7 6 6 5 5 5 5 6 6
7 7 6 6 6 6 6 6 6 6 6 7 7 7 7 7 7 7 7 7 7 8 8 8 8 9 10 10 10 10 10 10 11 11 11 11 10 10 10 9 9 8 8 7 8 9 9 8 7 7 6 6 6 6 6 6 6 6 6 7 7 7 6 6 6 5 6 6 5
8 8 8 7 7 7 7 7 7 7 7 7 7 6 6 6 6 6 7 7 8 8 8 8 8 8 9 9 9 9 9 9 10 11 11 12 11 11 10 9 8 8 7 8 13 16 17 15 12 9 7 6 6 6 6 6 6 6 6 7 7 7 7 6 6 6 6 6 6
8 8 8 8 8 8 8 8 8 8 8 7 7 7 6 6 6 6 7 7 7 8 8 8 8 8 8 8 9 9 9 9 10 10 11 12 12 12 10 9 8 7 8 11 16 20 21 21 19 15 10 6 6 6 6 6 6 6 6 6 6 6 7 7 6 6 6 6 6
8 8 8 8 8 8 8 8 8 8 8 8 8 8 7 7 6 7 7 7 7 7 7 6 6 7 7 7 8 9 9 9 9 10 10 11 11 12 11 10 8 7 9 14 19 21 22 21 21 19 15 9 7 6 5 5 6 6 6 6 6 6 6 7 7 7 6 6 6
8 8 8 9 9 9 9 8 8 8 8 8 8 8 7 8 8 8 8 8 7 7 6 5 5 5 5 5 6 8 9 9 9 9 10 10 11 11 11 10 9 10 12 18 21 22 22 22 21 21 19 14 9 6 5 5 5 5 5 5 5 6 6 7 7 7 6 6 6
8 8 9 9 9 9 9 9 9 9 8 8 8 8 8 8 8 8 8 8 7 7 6 6 5 5 5 5 7 8 8 8 8 8 9 10 11 11 11 11 10 12 16 21 22 22 22 22 21 21 20 18 11 7 5 4 4 5 5 5 5 5 6 6 6 6 6 6 6
8 8 8 9 9 9 9 9 9 9 9 8 8 8 9 9 9 9 8 8 7 7 6 6 5 5 6 7 6 7 7 7 8 8 8 9 11 11 11 12 11 13 16 21 22 23 22 22 22 21 21 20 14 9 6 5 5 5 5 5 5 6 6 7 7 7 7 6 6
7 7 8 8 9 9 10 10 9 9 9 9 9 9 9 10 10 9 8 7 7 7 7 6 6 6 7 6 6 6 7 7 7 7 8 9 10 11 11 12 12 13 16 21 22 23 23 22 22 22 22 21 16 10 7 6 6 5 5 6 6 6 7 7 7 7 7 7 7
7 7 7 8 9 9 10 10 9 9 9 10 10 10 10 10 10 9 8 7 7 8 7 7 7 7 7 7 6 6 7 7 7 8 8 8 9 10 10 11 12 13 16 21 22 23 23 23 23 22 22 22 17 12 8 7 6 6 6 7 7 7 7 7 7 7 8 8 8
7 7 8 8 9 9 10 10 9 10 10 10 10 11 11 11 10 10 9 9 8 8 7 7 8 8 8 8 7 7 7 7 8 8 9 9 9 10 10 10 10 12 16 20 22 23 23 24 23 23 23 23 17 12 9 8 7 6 7 7 8 8 8 8 8 8 9 9 8
8 8 8 8 9 9 10 10 9 10 10 10 11 11 11 11 11 11 10 9 9 8 8 8 8 8 7 7 7 8 8 9 8 8 8 8 8 9 9 9 8 11 16 20 22 23 23 24 24 24 23 22 16 11 8 8 7 7 8 8 9 9 9 9 9 9 9 9 9
8 8 8 9 9 9 10 10 10 10 10 11 11 12 11 10 11 11 11 11 10 9 8 8 8 8 8 8 7 8 9 10 9 9 8 8 8 8 9 9 9 12 16 20 21 22 23 24 24 24 23 20 13 10 8 8 8 8 9 10 10 10 10 10 9 9 9 9 9
8 8 9 9 10 10 10 10 10 10 11 11 12 12 12 11 10 10 10 11 11 10 10 10 9 9 9 9 9 9 9 10 10 10 9 8 8 8 9 10 9 12 16 19 20 21 22 23 23 23 22 17 11 9 8 8 8 9 9 10 10 10 10 10 10 10 9 9 9
8 8 9 10 10 10 10 10 11 11 11 12 12 11 11 12 11 10 10 10 10 10 10 10 11 11 11 10 10 10 10 10 10 10 10 10 9 9 9 10 9 11 14 17 19 20 21 22 23 23 20 15 10 9 8 8 8 9 9 10 10 10 10 9 9 9 10 10 10
9 9 9 10 10 11 11 11 11 11 12 12 11 10 10 10 10 10 10 9 9 10 11 10 11 12 12 12 13 13 12 11 11 11 11 11 10 10 10 11 10 11 12 15 18 20 21 22 22 22 20 14 11 9 8 8 8 9 9 10 10 10 10 8 8 8 9 10 11
10 9 9 10 10 11 11 11 11 12 12 12 11 11 11 10 9 9 10 9 9 9 10 10 12 13 13 14 14 14 14 13 13 12 12 12 11 12 12 13 12 12 12 16 18 20 21 22 22 22 21 16 12 9 8 8 8 9 10 10 10 10 10 9 8 8 8 10 13
10 10 10 10 10 11 11 12 12 12 12 12 12 12 11 10 10 11 11 10 9 9 10 11 13 13 14 14 15 15 15 15 14 13 13 13 13 15 16 15 14 14 14 17 19 21 22 22 23 23 21 16 12 9 8 8 8 9 10 9 9 9 9 8 8 7 8 9 11
9 10 10 11 11 11 11 12 12 12 12 11 12 11 11 10 10 10 10 10 10 10 11 11 13 14 15 15 14 15 16 17 16 15 15 14 15 15 16 15 15 15 15 16 19 21 22 22 23 23 21 16 12 9 8 8 8 10 10 10 9 9 9 8 8 8 8 8 8
Wind_Direction
12 11 10 9 7 5 3 7 7 4 1 360 359 356 355 0 4 3 1 2 1 359 356 356 355 352 349 347 346 345 343 343 343 344 346 348 346 347 349 353 358 3 6 8 10 11 11 8 8 9 13 13 16 18 17 11 4 6 12 17 14 10 11 17 16 14 11 8 1
10 10 10 11 8 6 4 6 6 3 1 2 1 357 354 358 2 1 359 358 356 354 354 355 355 352 349 348 348 347 346 344 343 343 344 344 343 343 346 351 355 359 3 6 10 13 13 10 11 12 12 8 6 8 9 9 8 11 15 16 13 12 14 19 15 13 13 15 14
9 9 9 10 8 7 6 5 2 359 358 1 2 359 357 360 2 360 356 352 351 352 354 356 355 352 350 349 349 349 348 345 344 344 344 342 341 342 343 346 350 354 357 1 3 5 7 8 12 16 16 11 8 6 3 359 2 8 14 15 13 12 13 16 9 9 10 16 19
9 9 9 9 8 7 5 2 359 357 357 0 0 359 359 2 3 359 353 348 352 354 355 355 353 351 350 349 349 349 349 348 347 347 345 342 340 339 338 339 345 349 351 353 357 358 359 1 6 12 14 12 13 9 2 353 357 1 8 12 13 15 16 13 6 5 7 14 20
6 7 6 6 4 4 3 1 359 357 357 358 360 360 0 2 1 358 355 354 356 354 350 351 352 351 349 348 349 349 350 350 350 350 347 344 341 338 336 336 339 340 342 346 350 352 353 356 359 4 9 11 13 9 2 355 356 357 359 4 10 13 14 14 9 5 5 10 17
1 1 1 1 2 2 1 359 358 357 356 358 0 0 360 359 359 358 356 354 352 349 348 352 354 352 349 349 349 350 350 351 351 350 348 346 343 340 337 334 332 330 331 338 342 345 348 352 352 351 353 1 8 8 5 4 4 2 3 7 10 10 9 9 6 6 9 16 21
359 359 359 358 360 360 358 356 356 356 358 0 2 360 357 354 355 354 352 349 350 352 353 356 354 352 350 349 350 350 350 350 350 350 349 348 345 342 339 334 330 326 323 327 333 337 342 347 348 344 342 344 346 352 359 7 9 9 8 7 5 4 5 5 3 6 15 20 22
359 360 358 357 358 358 356 353 354 356 359 2 1 357 354 352 352 351 350 352 353 353 352 353 352 350 349 349 350 349 349 348 348 348 348 347 346 344 341 337 333 329 323 315 317 323 330 338 341 341 339 338 336 338 345 356 1 4 2 358 354 353 354 354 354 1 10 19 23
359 358 356 356 358 356 353 351 352 356 359 359 357 354 352 352 352 352 352 352 349 347 348 350 349 349 350 351 351 351 349 348 347 346 345 345 346 345 345 343 340 336 329 318 311 310 317 326 330 330 330 331 331 332 337 348 353 352 350 348 347 350 352 352 350 352 356 8 18
356 354 354 354 354 353 351 350 352 355 357 356 354 353 352 354 354 353 351 347 344 345 348 349 348 349 351 352 353 351 349 347 345 344 343 344 345 346 345 345 344 341 336 327 318 312 311 314 316 317 318 323 324 327 332 341 344 342 339 337 341 343 346 349 349 349 347 349 354
352 351 351 352 350 350 350 352 353 355 357 356 353 353 352 353 352 349 347 345 345 347 348 348 348 349 350 351 351 349 348 347 345 344 343 343 343 343 343 342 342 341 338 332 326 319 315 311 309 306 306 307 312 319 325 331 333 331 328 325 330 332 332 334 341 343 341 338 336
349 348 349 350 348 349 351 354 353 353 354 353 352 351 351 350 347 346 346 347 348 347 346 346 347 348 348 348 347 346 345 345 345 344 343 342 342 341 341 340 340 340 338 334 330 326 320 313 309 306 302 296 293 296 303 311 316 315 314 314 317 316 313 310 314 317 321 322 321
346 347 348 349 349 350 352 354 352 351 351 350 349 349 347 345 344 345 346 348 347 346 344 344 345 347 347 345 343 343 343 343 344 344 344 343 342 341 340 338 338 338 337 334 332 329 323 315 310 307 303 298 291 281 273 271 281 289 294 300 304 302 299 294 293 294 297 302 302
345 347 348 348 349 352 353 353 351 349 348 346 346 345 343 342 343 345 346 346 345 343 342 342 344 345 344 343 341 341 341 341 342 343 344 344 344 343 342 338 337 336 336 335 334 331 327 319 313 307 304 301 296 287 274 259 255 259 267 276 283 286 288 289 290 291 293 292 291
345 347 347 348 350 352 353 352 349 346 344 343 342 342 341 341 342 343 343 343 342 341 341 343 342 341 341 341 340 340 340 340 342 343 344 345 345 344 343 339 337 335 334 334 333 332 329 323 315 309 304 301 298 293 286 273 261 254 252 254 260 267 275 282 287 291 292 291 291
344 345 346 348 350 351 351 349 346 343 341 340 339 339 339 339 339 341 342 341 340 340 341 342 340 339 339 340 341 340 340 341 343 344 344 344 344 343 342 340 337 335 332 331 330 330 328 326 319 312 306 300 297 295 290 284 275 266 258 253 253 255 260 268 275 282 286 288 289
344 343 344 346 348 347 346 344 342 339 338 336 335 336 336 336 337 339 340 340 339 339 339 339 339 338 338 338 340 341 341 341 342 343 342 342 340 340 339 338 335 333 331 329 327 325 325 324 322 317 311 303 298 293 290 287 283 278 272 266 261 258 256 257 260 264 270 277 280
343 342 343 345 345 343 340 337 336 334 333 332 332 332 333 334 334 335 336 336 338 338 337 336 336 336 337 337 338 339 340 339 339 338 338 337 336 336 335 334 333 332 330 328 325 322 320 319 320 319 316 310 302 295 290 287 285 282 279 277 274 270 265 261 255 252 253 259 266
342 342 343 343 340 337 333 331 330 329 328 327 327 328 329 330 331 331 332 334 336 336 335 334 334 334 335 335 335 336 337 336 335 334 333 333 333 333 333 332 331 330 329 327 323 320 317 316 316 317 316 314 309 303 297 291 287 283 281 279 277 275 272 268 261 255 250 249 255
342 342 341 338 334 331 328 326 324 322 321 322 323 324 325 325 328 330 331 330 331 332 333 332 332 332 332 333 333 334 334 333 333 332 331 331 331 331 331 330 329 328 327 325 322 320 317 315 314 313 313 312 310 307 303 298 293 288 284 281 277 272 269 267 264 261 257 253 254
341 339 336 332 329 325 322 319 317 316 316 317 318 319 320 321 324 325 325 324 326 329 330 331 330 330 330 330 331 330 329 329 329 329 328 328 328 328 327 327 327 326 325 324 322 320 317 314 311 309 307 306 305 303 302 301 299 295 291 287 280 272 265 261 259 258 257 256 256
337 334 331 327 324 321 318 316 314 313 313 313 313 314 316 318 318 318 318 319 323 327 328 328 328 327 327 326 325 325 324 325 325 325 325 325 325 325 326 326 325 325 324 323 321 319 316 313 309 306 302 300 297 295 294 294 295 294 292 289 284 278 270 261 256 253 251 251 251
331 329 327 326 323 322 320 317 316 315 314 314 314 315 315 314 313 314 315 318 322 324 324 324 324 323 322 320 320 321 322 323 323 323 323 324 324 324 325 326 326 325 323 322 319 317 315 312 309 304 300 295 292 289 287 287 288 288 288 287 285 283 278 270 261 255 250 247 246
327 326 326 326 327 326 324 323 322 321 320 317 315 314 313 312 311 313 316 318 319 319 319 319 319 318 317 317 318 319 321 322 323 323 323 323 324 324 325 326 325 323 321 319 320 322 322 319 314 307 301 294 289 286 284 283 284 284 285 286 286 285 283 278 271 264 257 251 247
325 325 326 327 328 328 327 328 326 324 321 317 315 314 313 312 312 314 315 316 315 315 314 314 314 314 315 316 317 319 320 321 321 321 321 322 322 323 324 324 323 322 320 318 320 322 323 323 321 317 309 299 291 287 284 282 279 279 280 283 285 286 286 284 280 274 268 261 254
323 324 325 326 327 328 328 327 324 322 320 319 319 319 317 314 314 314 314 313 311 310 310 311 310 311 313 314 316 318 319 319 319 319 319 319 320 321 322 322 321 319 318 317 320 321 322 322 322 320 317 308 298 291 286 283 279 276 276 277 280 283 285 286 284 280 275 269 263
323 323 323 323 325 325 324 322 321 321 321 321 321 319 317 315 316 315 313 310 307 306 306 306 305 307 309 310 312 314 314 315 315 315 315 315 317 318 318 317 317 315 315 316 318 319 320 321 321 321 320 314 306 296 288 284 281 278 276 276 276 276 276 278 279 278 275 271 266
320 320 321 323 323 322 320 319 320 320 319 318 317 316 315 316 317 315 313 310 308 307 307 304 302 303 306 307 308 307 308 309 310 311 312 312 313 313 313 313 313 312 313 315 317 318 318 319 319 319 319 318 312 304 295 288 284 280 278 276 275 274 272 272 273 273 272 269 266
316 317 319 321 320 319 318 319 318 316 314 312 312 313 314 316 316 315 314 312 312 311 308 304 303 304 303 302 300 301 302 302 304 306 308 310 310 310 309 309 309 310 312 314 315 316 316 317 317 317 318 318 315 311 306 300 294 289 285 281 278 276 274 272 271 270 269 268 266
313 314 316 316 315 315 315 315 313 312 311 311 313 313 314 314 315 315 314 313 310 306 303 300 301 300 296 292 293 295 296 296 298 300 303 305 305 306 306 307 308 309 311 313 313 314 315 315 316 316 316 317 314 312 309 306 303 299 294 290 283 278 274 272 270 269 267 266 265
309 310 311 311 311 311 311 310 310 311 312 313 314 314 314 314 314 313 311 309 305 302 301 300 298 293 288 285 285 287 288 289 291 293 295 296 298 299 301 303 304 306 307 310 311 312 313 313 314 314 314 315 313 311 308 306 305 302 298 295 289 283 279 276 272 269 266 263 262
306 306 307 308 308 307 307 308 309 311 312 313 313 314 314 313 311 310 309 307 305 305 305 304 301 297 293 290 288 285 284 283 284 284 284 285 288 291 294 297 299 301 303 306 308 309 310 311 312 312 312 313 311 309 307 305 303 301 298 294 290 286 283 280 276 272 267 264 260
305 305 305 305 304 305 305 307 308 310 311 312 312 312 312 311 311 311 311 310 309 308 307 305 304 301 298 296 293 290 286 282 278 276 276 276 278 282 286 290 292 296 299 302 304 306 308 309 309 309 310 310 309 307 306 303 302 299 297 294 291 288 284 280 277 274 271 266 262
305 305 304 303 303 303 305 306 307 308 309 310 310 309 309 309 311 312 312 312 311 309 306 303 301 298 295 293 292 290 288 285 280 275 272 270 271 273 276 280 282 288 293 296 299 302 304 305 306 306 307 308 306 305 303 301 299 296 294 291 290 288 286 282 279 275 272 268 264
303 303 303 302 302 303 304 305 306 307 308 307 307 307 307 307 308 308 308 309 309 308 305 303 300 298 296 294 291 290 289 289 285 279 273 268 267 268 270 271 273 280 285 290 294 297 299 301 302 303 304 304 303 301 299 298 295 292 290 288 287 285 284 283 281 278 274 270 265
300 300 301 301 301 302 302 303 304 305 305 304 304 304 305 305 305 305 305 307 307 306 305 304 303 301 300 299 297 294 291 289 287 284 280 273 270 268 268 268 269 274 279 284 288 292 294 296 297 299 300 301 299 297 296 295 292 290 287 286 284 283 282 282 281 279 276 273 268
298 297 297 298 299 299 300 300 301 302 301 300 300 301 301 302 302 302 303 306 305 304 303 303 303 302 301 301 299 296 293 289 288 287 285 282 277 274 273 272 270 271 274 278 282 286 289 291 293 295 296 296 294 293 292 291 289 287 286 284 283 281 280 279 279 278 276 274 270
296 295 295 295 295 296 296 297 297 297 297 296 296 297 297 299 299 300 301 303 302 301 301 301 300 300 300 300 298 296 294 291 289 288 287 286 283 280 278 278 275 272 272 275 279 283 285 288 289 290 291 291 290 289 288 287 286 285 284 283 283 281 279 277 277 276 275 273 270
294 293 292 292 292 292 293 293 293 292 292 293 294 294 295 296 296 297 297 298 296 296 296 297 296 296 297 298 298 297 295 293 290 289 288 287 285 284 283 282 280 277 276 277 280 282 283 285 286 286 287 286 285 285 284 283 282 281 280 280 281 281 279 277 275 274 273 272 271
291 291 290 288 288 289 289 290 289 289 289 290 291 292 293 293 293 293 294 294 293 292 292 293 293 293 295 297 296 296 295 294 292 290 288 287 286 286 286 284 283 282 281 281 282 282 282 282 282 283 283 282 281 279 278 277 277 277 277 276 278 279 279 278 275 274 273 272 272
289 289 288 287 287 287 287 288 288 288 288 288 288 289 289 290 291 292 292 292 291 291 291 291 292 292 293 294 294 294 294 293 292 291 289 288 287 286 286 284 283 282 281 281 281 281 281 280 280 279 279 277 275 273 272 272 272 273 272 273 273 275 276 278 277 274 272 271 272